Showing default

HAWK-11C, 62381

Orbit data source: Space-Track

HAWK-11C, 62381 is a payload satellite owned by HawkEye 360 (US) in LEO that was launched on Sat, 21 Dec 2024 UTC via an FALCON 9 launch vehicle from the Air Force Western Test Range (AFWTR). Payload-class satellites include a variety of spacecraft equipped with specific instruments for various scientific and technological missions. These include communications satellites like Starlink; space stations such as the ISS; scientific satellites like the Hubble; Earth observation satellites from companies like Planet Labs, Umbra, and HawkEye 360; GPS; miniature CubeSats for education and research; and military/defense satellites.

Loading next visibility...
Identifier
62381, 2024-247E
Orbit
LEO
Country
Flag of USUS
Related business
Manufacturer
UTIAS-SFL
Mission
Operational Commercial Sigint
Bus & Motor
HAWK2G, Unknown motor
Mass
31 kg wet, 30 kg dry
Launch date (UTC)
2024-12-21 (2 years ago)
Launch vehicle
FALCON 9
Launch site
Air Force Western Test Range (AFWTR)
Object type
Payload
Rocket body
Debris
Shape & HBR
Box + 2 Pan, 1.0 m
Radar Cross Section
0.240 m², Medium (>0.1 m² and < 1m²)

Expand to show TLE details & history
Last TLE update: 9 hours ago

TLE from 9 hours ago
0 HAWK-11C
1 62381U 24247E   26257.11100464  .00005765  00000-0  19658-3 0  9993
2 62381  45.0032 161.2467 0003197   0.3240 359.7646 15.31359520 96630
Epoch: 2026-09-14T02:39Z
TLE epoch observation values (Epoch: 2026-09-14T02:39:50.800Z)
Latitude
-0.00005°
Longitude
128.18899°
Altitude
469.564 km
Speed
7.634 km/s
True Right ascension
10h 44m 59s
True Declination
0° 00' 00"
Sunlit
Object was in daylight at epoch
Visualization orbit readout
Latitude
Unknown
Longitude
Unknown
Altitude
Unknown
Speed
Unknown
Apparent Right ascension
Unknown
Apparent Declination
Unknown
Sunlit
N/A
Visualization observer readout
Local Sidereal Time
03:48:49
Azimuth
Unknown
Elevation
Unknown
Doppler factor
Unknown
Orbital elements
Apogee altitude
475.557 km
Perigee altitude
471.176 km
Semi-major axis
6,851.503 km
Eccentricity
0.00032
Inclination
45.0032°
RAAN
161.2467°
Arg. of periapsis
0.324°
True anomaly
359.76445°
Mean anomaly
359.7646°
Eccentric anomaly
359.76452°
Mean motion
3.82705 °/min
Orbital period
94.07 mins
BSTAR
0.00019658
Loading maneuver chart data...
Computing Atmospheric mass density...
Loading historical data...
Loading historical data...
Loading historical data...
Loading historical data...
Loading historical data...
Loading historical data...
Loading historical data...

Documentation

Showing up to 5 results
|